Missoula, MT

9:30 PM MDT on March 24, 2017 (GMT -0600)
Missoula International

Weather History for KMSO - September, 2013

Change the Weather History Date:

Friday, September 6, 2013

  Actual Average Record
Temperature  
Mean Temperature 69 °F 61 °F  
Max Temperature 82 °F 77 °F 93 °F (1966)
Min Temperature 56 °F 45 °F 29 °F (1895)
Degree Days  
Heating Degree Days 0 5  
Month to date heating degree days 0 26  
Since 1 July heating degree days 8 110  
Cooling Degree Days 4 1  
Month to date cooling degree days 37 7  
Year to date cooling degree days 528 324  
Growing Degree Days 18 (Base 50)    
Moisture  
Dew Point 55 °F    
Average Humidity 68    
Maximum Humidity 100    
Minimum Humidity 35    
Precipitation  
Precipitation 0.00 in 0.05 in 0.65 in (1985)
Month to date precipitation 0.09 0.26  
Year to date precipitation 6.40 10.29  
Snow  
Snow 0.00 in - - ()
Month to date snowfall 0.0  
Year to date snowfall 27.4  
Since 1 July snowfall T  
Snow Depth 0.00 in    
Sea Level Pressure  
Sea Level Pressure 30.02 in    
Wind  
Wind Speed 8 mph (NNW)    
Max Wind Speed 20 mph    
Max Gust Speed 26 mph    
Visibility 10 miles    
Events      
T = Trace of Precipitation, MM = Missing Value Source: NWS Daily Summary

Daily Weather History Graph

Daily Weather History Graph

Search for Another Location

Airport or City:

Trip Planner

Search our weather history database for the weather conditions in past years. The results will help you decide how hot, cold, wet, or windy it might be!

Date:

Astronomy

Sep. 06, 2013 Rise Set
Actual Time 7:02 AM MDT 8:05 PM MDT
Civil Twilight 6:31 AM MDT 8:36 PM MDT
Nautical Twilight 5:54 AM MDT 9:13 PM MDT
Astronomical Twilight 5:14 AM MDT 9:52 PM MDT
Moon 8:27 AM MDT (9/6) 8:21 PM MDT (9/6)
Length of Visible Light 14h 04m
Length of Day
13h 02m
New Moon, 2% of the Moon is Illuminated
Sep 6
New Moon
Sep 12
First Quarter
Sep 19
Full
Sep 26
Last Quarter
Oct 4
New

Hourly Weather History & Observations

Time (MDT) Temp. Heat Index Dew Point Humidity Pressure Visibility Wind Dir Wind Speed Gust Speed Precip Events Conditions
12:53 AM 63.0 °F - 59.0 °F 87% 29.99 in 10.0 mi East 5.8 mph - N/A   Clear
1:53 AM 61.0 °F - 59.0 °F 93% 30.03 in 10.0 mi East 8.1 mph - N/A   Scattered Clouds
2:53 AM 59.0 °F - 57.9 °F 96% 30.01 in 10.0 mi West 3.5 mph - N/A   Clear
3:53 AM 59.0 °F - 57.0 °F 93% 30.01 in 10.0 mi North 3.5 mph - N/A   Clear
4:53 AM 59.0 °F - 57.9 °F 96% 30.02 in 10.0 mi SSW 5.8 mph - N/A   Partly Cloudy
5:53 AM 57.9 °F - 57.0 °F 97% 30.00 in 10.0 mi SE 3.5 mph - N/A   Clear
6:53 AM 55.9 °F - 55.0 °F 97% 30.02 in 10.0 mi Calm Calm - N/A   Clear
7:06 AM 55.4 °F - 55.4 °F 100% 30.07 in 1.8 mi Calm Calm - N/A   Clear
7:10 AM 55.4 °F - 55.4 °F 100% 30.08 in 2.0 mi Calm Calm - N/A   Partly Cloudy
7:18 AM 57.2 °F - 57.2 °F 100% 30.08 in 10.0 mi Calm Calm - N/A   Scattered Clouds
7:53 AM 57.9 °F - 57.0 °F 97% 30.03 in 10.0 mi SSE 5.8 mph - N/A   Partly Cloudy
8:18 AM 57.2 °F - 57.2 °F 100% 30.08 in 8.0 mi Calm Calm - N/A   Scattered Clouds
8:27 AM 57.2 °F - 55.4 °F 94% 30.08 in 10.0 mi Calm Calm - N/A   Mostly Cloudy
8:53 AM 57.9 °F - 57.0 °F 97% 30.04 in 10.0 mi Calm Calm - N/A   Mostly Cloudy
9:02 AM 59.0 °F - 57.2 °F 94% 30.08 in 10.0 mi Calm Calm - N/A   Scattered Clouds
9:53 AM 60.1 °F - 57.9 °F 93% 30.04 in 10.0 mi Calm Calm - N/A   Clear
10:53 AM 63.0 °F - 57.9 °F 84% 30.04 in 10.0 mi Calm Calm - N/A   Clear
11:53 AM 66.9 °F - 59.0 °F 76% 30.03 in 10.0 mi Calm Calm - N/A   Partly Cloudy
12:53 PM 73.0 °F - 57.9 °F 59% 30.01 in 10.0 mi NNE 4.6 mph - N/A   Clear
1:53 PM 75.9 °F - 57.0 °F 52% 30.01 in 10.0 mi NNW 17.3 mph 23.0 mph N/A   Clear
2:53 PM 78.1 °F - 55.9 °F 46% 29.99 in 10.0 mi NW 15.0 mph - N/A   Clear
3:53 PM 80.1 °F 79.9 °F 53.1 °F 39% 29.96 in 10.0 mi NNW 9.2 mph 20.7 mph N/A   Clear
4:53 PM 81.0 °F - 52.0 °F 36% 29.93 in 10.0 mi NW 13.8 mph 23.0 mph N/A   Clear
5:53 PM 81.0 °F - 50.0 °F 34% 29.93 in 10.0 mi NW 13.8 mph 25.3 mph N/A   Partly Cloudy
6:53 PM 79.0 °F - 48.9 °F 35% 29.95 in 10.0 mi NW 16.1 mph 21.9 mph N/A   Partly Cloudy
7:53 PM 73.9 °F - 48.9 °F 41% 29.97 in 10.0 mi NW 12.7 mph 17.3 mph N/A   Mostly Cloudy
8:53 PM 73.0 °F - 48.9 °F 42% 29.99 in 10.0 mi NW 13.8 mph 23.0 mph N/A   Scattered Clouds
9:53 PM 70.0 °F - 48.0 °F 46% 30.02 in 10.0 mi NW 13.8 mph - N/A   Clear
10:53 PM 70.0 °F - 46.9 °F 44% 30.03 in 10.0 mi NW 10.4 mph 20.7 mph N/A   Overcast
11:53 PM 66.9 °F - 46.9 °F 49% 30.03 in 10.0 mi NW 8.1 mph - N/A   Clear